Lapse_Rate
7.2 7.2 7.3 6.8 7.0 6.4 6.1 5.7 5.8 6.2 6.1 5.9 6.3 6.4 6.5 6.7 6.8 6.9 6.9 7.0 6.8 6.8 6.8 6.9 6.9 6.9 6.7 6.8 6.8 6.7 6.7 6.6
7.3 7.3 7.2 7.2 7.1 6.9 5.9 6.0 6.1 6.5 5.9 6.2 6.0 6.1 6.6 6.6 6.8 6.8 7.0 7.0 7.1 7.0 7.0 6.9 6.8 7.0 7.0 6.7 6.7 6.6 6.7 6.6
7.5 7.4 7.2 7.0 6.9 6.9 6.9 6.4 6.5 6.3 6.4 6.2 6.2 5.9 6.0 5.9 6.3 6.7 6.6 6.8 7.3 7.1 7.4 7.1 6.8 6.8 7.0 6.9 7.0 6.8 6.9 6.7
7.7 7.6 7.4 7.2 7.2 7.2 7.0 6.9 6.7 6.5 6.4 6.5 6.1 5.7 5.6 6.1 6.2 6.1 6.2 6.5 6.6 6.7 7.0 6.6 7.3 7.1 6.9 6.9 7.0 6.8 7.1 6.8
7.8 7.7 7.6 7.5 7.4 7.2 7.1 7.0 6.8 6.6 6.5 6.5 6.3 5.9 5.5 5.7 5.8 6.8 5.9 6.3 6.6 6.7 6.7 6.9 6.7 6.8 7.0 6.8 6.8 6.8 7.2 6.8
7.8 7.7 7.5 7.3 7.4 7.4 7.3 7.1 7.1 7.0 6.8 6.3 6.3 6.2 6.2 6.3 6.2 6.3 6.3 6.6 6.7 6.9 6.7 6.6 6.8 6.9 6.7 6.7 7.1 7.1 7.0 6.7
7.4 7.4 7.3 7.2 7.2 7.2 7.2 7.1 7.0 6.9 7.0 6.9 6.6 6.4 6.5 6.6 6.6 6.8 6.6 6.5 6.8 6.8 6.6 6.9 6.9 6.7 6.7 7.1 7.1 6.8 6.7 6.7
6.6 7.4 7.5 7.4 7.3 7.3 7.2 7.0 6.9 6.8 6.9 6.9 6.9 6.8 6.7 6.9 6.9 6.9 6.7 6.5 6.6 6.7 6.6 6.8 6.7 6.8 6.9 7.0 6.9 6.7 6.7 6.8
5.9 7.1 7.5 7.4 7.3 7.4 7.1 6.9 6.9 6.8 6.8 7.1 7.1 7.0 7.1 6.9 7.1 7.0 7.1 6.8 6.5 6.5 6.7 7.1 7.1 6.9 7.0 6.9 6.8 6.9 7.0 7.1
6.1 6.8 7.4 7.5 7.3 7.1 6.8 6.8 6.9 6.9 6.9 7.2 7.2 7.2 7.3 7.4 7.4 7.4 7.3 6.8 6.8 6.9 7.1 7.0 6.9 7.0 6.9 6.9 7.0 7.1 7.2 7.3
6.3 6.3 7.2 7.3 7.3 6.9 6.8 6.7 6.8 6.7 6.9 6.9 7.1 7.2 7.3 7.4 7.4 7.3 7.0 6.9 6.9 7.0 7.0 6.9 6.9 6.9 6.9 7.0 7.2 7.2 7.3 7.4
6.8 6.5 6.8 6.9 7.2 7.2 6.9 6.7 6.9 7.1 7.0 6.9 6.9 7.0 7.1 7.2 7.3 7.2 6.9 6.9 6.9 6.9 6.8 6.9 6.7 6.7 6.9 7.1 7.2 7.4 7.4 7.5
7.0 7.0 6.7 7.1 7.3 7.4 7.2 6.9 7.1 7.1 7.0 6.9 7.0 7.1 7.3 7.2 7.2 6.9 6.8 6.9 6.9 6.9 6.8 6.8 6.7 6.9 7.0 7.2 7.3 7.4 7.5 7.5
6.9 7.1 6.6 7.3 7.3 7.6 7.5 7.0 7.1 6.9 6.8 7.0 7.2 7.3 7.5 7.3 7.1 7.0 6.8 6.8 6.8 6.8 6.7 6.8 6.8 7.0 7.1 7.2 7.3 7.5 7.4 7.3
7.1 6.9 7.1 7.3 7.4 7.7 7.6 7.3 7.1 7.0 7.0 7.1 7.1 7.3 7.3 7.2 6.9 6.7 6.7 7.1 6.8 6.7 6.8 6.8 7.0 7.0 7.1 7.2 7.3 7.3 7.3 7.3
7.1 7.1 7.3 7.5 7.7 7.8 7.7 7.4 7.3 7.2 7.2 7.1 7.0 7.0 7.0 6.8 6.7 6.7 6.7 6.7 6.7 6.7 6.8 6.9 7.0 7.0 7.0 7.2 7.3 7.2 7.2 7.2
7.3 7.3 7.0 7.4 7.5 7.4 7.5 7.7 7.6 7.3 7.0 6.8 6.7 6.7 6.6 6.5 6.5 6.5 6.6 6.6 6.7 6.9 6.9 6.9 6.9 6.9 7.0 7.1 7.1 7.1 7.1 7.1
7.1 7.6 7.8 7.7 7.5 7.7 7.9 7.8 7.6 7.3 6.9 6.7 6.6 6.5 6.5 6.4 6.4 6.6 6.7 6.7 6.7 6.8 6.8 6.8 6.8 6.8 6.9 7.0 7.0 7.1 7.0 7.0
7.6 7.7 7.8 7.7 7.7 7.9 7.8 7.7 7.5 7.2 6.8 6.5 6.5 6.4 6.4 6.4 6.5 6.6 6.6 6.7 6.7 6.7 6.7 6.7 6.8 6.8 6.9 6.9 7.0 6.9 6.9 7.0
Wind_Speed
14 14 10 9 9 12 9 5 6 6 6 5 8 8 13 14 13 13 16 14 16 10 8 12 14 7 5 5 6 5 5 5
17 15 14 12 11 9 9 8 5 3 3 3 6 4 5 6 10 14 14 15 16 16 11 9 12 5 6 7 4 7 5 6
17 16 14 14 13 12 11 8 7 4 2 1 4 4 5 6 11 14 14 16 17 13 11 7 9 5 7 7 6 1 4 6
18 17 17 15 14 13 11 10 9 7 6 5 5 5 5 3 6 7 11 14 14 14 14 10 9 8 5 6 7 8 4 4
17 18 17 17 15 14 13 12 10 8 10 8 7 4 5 6 7 6 6 15 13 13 11 12 14 12 7 5 8 5 5 6
19 19 17 15 17 15 14 14 11 9 8 7 6 9 6 6 6 6 8 11 9 9 13 13 10 9 8 7 6 7 7 5
18 17 16 15 15 16 14 15 13 12 10 8 10 10 9 6 6 4 4 3 5 11 13 11 13 8 7 7 9 8 7 7
19 19 16 16 16 15 14 15 14 12 10 8 10 10 9 9 7 5 5 3 4 5 9 7 7 9 11 11 7 6 7 6
19 19 17 16 16 17 16 16 15 13 12 9 10 9 7 7 6 6 6 4 4 10 9 9 9 11 11 12 7 6 7 5
21 19 16 16 15 16 15 16 15 14 11 9 9 8 8 8 8 6 5 7 7 8 11 9 9 10 12 11 4 5 5 4
20 19 17 14 14 12 12 12 15 14 13 10 9 7 6 7 6 7 7 7 11 8 8 8 8 8 9 8 5 5 6 3
19 18 18 15 14 14 12 11 15 14 12 10 10 8 7 7 6 7 7 9 9 7 7 7 6 5 8 5 5 5 6 6
20 19 19 17 16 15 13 11 14 14 13 10 10 8 9 8 7 7 9 7 10 9 8 6 6 6 7 6 7 5 6 6
20 19 19 18 17 16 15 12 14 14 14 12 11 10 10 8 8 8 7 7 7 9 8 6 6 6 6 6 5 5 5 5
20 19 19 18 17 16 15 13 14 15 14 13 12 11 10 9 9 10 8 8 7 7 6 6 6 6 6 5 5 4 2 5
18 19 18 19 18 17 16 15 14 15 14 14 13 11 10 10 9 9 8 7 7 7 6 7 7 5 4 4 4 4 2 3
18 20 20 20 19 18 17 16 15 15 14 14 14 12 11 11 10 9 8 7 7 7 7 7 6 4 13 8 5 1 1 4
20 21 20 19 19 18 18 17 15 16 15 14 15 14 14 12 12 11 10 7 7 7 7 7 6 7 14 9 3 5 1 3
17 17 18 18 18 18 17 17 17 16 16 16 16 15 14 13 12 11 10 7 7 6 6 7 6 7 16 10 4 5 3 3
Wind_Direction
155 163 151 125 105 86 72 78 70 61 54 81 75 77 63 53 60 53 44 40 22 80 67 44 46 33 14 1 21 12 18 15
168 173 168 156 143 137 150 149 116 114 138 147 117 104 95 91 75 68 51 43 37 29 34 47 64 42 33 12 36 42 14 353
169 170 174 163 160 160 147 142 140 117 123 351 66 86 80 110 105 83 62 58 46 44 36 29 55 44 42 14 29 42 59 28
168 171 172 167 164 163 153 157 156 172 135 103 88 97 120 169 98 77 65 63 64 55 44 39 41 52 55 33 16 8 72 47
172 174 173 173 164 158 163 163 174 139 143 136 155 148 104 66 62 80 67 57 61 54 54 55 60 48 35 44 25 26 35 35
176 177 176 179 165 164 168 164 154 151 130 153 120 111 113 105 98 92 75 60 69 68 60 60 72 66 57 48 44 41 31 45
175 177 173 177 168 161 162 166 160 160 160 155 132 132 125 120 131 122 121 118 79 77 80 60 61 77 78 60 56 43 48 39
177 172 174 176 165 160 159 168 161 161 150 146 139 138 138 143 147 136 130 103 102 82 73 80 74 70 69 69 68 56 55 47
172 172 176 174 166 161 168 174 156 159 153 149 147 144 148 146 153 154 138 136 109 116 110 98 96 84 72 70 54 78 59 72
173 173 174 172 164 164 171 172 157 159 153 146 147 166 157 167 142 157 120 113 128 133 115 102 90 82 88 76 56 59 63 57
170 171 167 167 162 161 168 176 154 154 150 151 156 162 157 133 134 127 130 143 117 128 121 115 102 89 74 84 86 65 76 35
172 165 161 164 161 160 168 179 154 154 151 160 156 153 141 135 147 134 125 122 142 131 129 121 115 108 105 104 102 66 70 65
162 161 161 161 162 162 170 184 155 156 156 159 156 147 144 152 143 133 135 146 152 141 151 131 122 107 90 80 62 70 62 56
159 161 161 164 165 164 170 183 160 158 159 159 157 157 157 159 145 137 155 156 151 155 153 143 124 120 109 100 101 85 87 78
161 165 164 166 165 165 169 181 163 161 163 160 161 162 162 153 154 151 157 165 159 152 151 136 126 140 134 121 110 106 83 110
165 168 166 167 167 167 170 176 165 164 163 164 164 163 162 152 156 163 156 160 162 154 154 137 154 137 124 82 123 122 110 91
170 170 168 170 171 172 172 172 167 167 165 166 162 165 162 166 165 168 163 164 165 167 154 150 154 129 110 90 26 359 118 82
176 176 174 174 175 173 173 170 164 168 166 166 166 171 174 170 169 171 167 174 161 162 157 153 154 128 128 120 89 295 100 100
178 175 172 171 170 172 169 169 167 170 171 172 171 175 175 169 172 175 168 170 164 164 165 164 159 147 144 145 168 271 270 147